This is the latest recevied weather packets stored in our database for station/object K5GTX. If no packets are shown the sender has not sent any weather packets the latest 10 day(s).
| Time | Temp. | Humidity | Pressure | Rain* | Wind** | Luminosity | Snow |
|---|---|---|---|---|---|---|---|
| 1777441372 | 20° C | 99% | 1020 hPa | 0 mm | - | 0 W/m² | - |
| 1777441072 | 20° C | 99% | 1019.7 hPa | 0 mm | - | 0 W/m² | - |
| 1777440769 | 20.56° C | 99% | 1019.5 hPa | 0 mm | - | 0 W/m² | - |
| 1777440464 | 20.56° C | 99% | 1019.5 hPa | 0 mm | - | 0 W/m² | - |
| 1777440160 | 20.56° C | 99% | 1019.5 hPa | 0 mm | - | 0 W/m² | - |
| 1777439856 | 20.56° C | 99% | 1019.5 hPa | 0 mm | - | 0 W/m² | - |
| 1777439553 | 21.11° C | 99% | 1019.3 hPa | 0 mm | - | 0 W/m² | - |
| 1777439247 | 21.11° C | 99% | 1019.5 hPa | 0 mm | - | 0 W/m² | - |
| 1777438944 | 21.11° C | 99% | 1019.1 hPa | 0 mm | - | 0 W/m² | - |
| 1777438642 | 21.11° C | 99% | 1019.1 hPa | 0 mm | - | 0 W/m² | - |
| 1777438338 | 21.67° C | 99% | 1019.1 hPa | 0 mm | - | 0 W/m² | - |
| 1777438033 | 21.67° C | 99% | 1018.9 hPa | 0 mm | - | 0 W/m² | - |
| 1777437730 | 21.67° C | 99% | 1018.9 hPa | 0 mm | - | 0 W/m² | - |
| 1777437427 | 22.22° C | 99% | 1018.9 hPa | 0 mm | - | 0 W/m² | - |
| 1777437123 | 22.78° C | 99% | 1018.8 hPa | 0 mm | - | 0 W/m² | - |
| 1777436820 | 23.89° C | 99% | 1018.6 hPa | 0 mm | - | 0 W/m² | - |
| 1777436516 | 24.44° C | 99% | 1018.2 hPa | 0 mm | - | 0 W/m² | - |
| 1777436213 | 24.44° C | 99% | 1018.3 hPa | 0 mm | - | 0 W/m² | - |
| 1777435910 | 24.44° C | 99% | 1018.5 hPa | 0 mm | - | 0 W/m² | - |
| 1777435605 | 24.44° C | 99% | 1018.4 hPa | 0 mm | - | 0 W/m² | - |
| 1777435301 | 24.44° C | 99% | 1018.2 hPa | 0 mm | - | 0 W/m² | - |
| 1777435000 | 24.44° C | 99% | 1018.3 hPa | 0 mm | - | 0 W/m² | - |
| 1777434696 | 24.44° C | 99% | 1018.7 hPa | 0 mm | - | 0 W/m² | - |
| 1777434396 | 23.89° C | 99% | 1018.5 hPa | 0 mm | - | 0 W/m² | - |
| 1777434095 | 23.89° C | 99% | 1018.4 hPa | 0 mm | - | 0 W/m² | - |
* Rain latest hour (hover to see other rain measurements)
** Current wind speed in m/s (hover to see current wind gust speed)